• In Hungary
  • List of Countries
  • For 7 days
  • Water Temperature
  • Satellite Maps
  • Weather Map
  • News
  • Weather Widgets
  • user-avatar
    Login

    Hourly Weather Aksovo

    Today, 24 May, Thursday

    Time Temperature Precipitation Wind Pressure Humidity
    00:00 +11°C° 0 mm 1 mps 748 mmHg 90%
    01:00 +10°C° 0 mm 1 mps 748 mmHg 91%
    02:00 +9°C° 0 mm 0 mps 748 mmHg 95%
    03:00 +11°C° 0 mm 1 mps 748 mmHg 92%
    04:00 +11°C° 0 mm 1 mps 748 mmHg 89%
    05:00 +12°C° 0 mm 1 mps 748 mmHg 87%
    06:00 +14°C° 0 mm 1 mps 749 mmHg 78%
    07:00 +18°C° 0 mm 1 mps 749 mmHg 69%
    08:00 +21°C° 0 mm 1 mps 749 mmHg 60%
    09:00 +21°C° 0 mm 1 mps 749 mmHg 57%
    10:00 +22°C° 0 mm 1 mps 749 mmHg 53%
    11:00 +23°C° 0 mm 2 mps 749 mmHg 50%
    12:00 +23°C° 0.3 mm 2 mps 749 mmHg 52%
    13:00 +23°C° 0.3 mm 2 mps 749 mmHg 54%
    14:00 +22°C° 0 mm 3 mps 749 mmHg 54%
    15:00 +21°C° 0.2 mm 3 mps 749 mmHg 56%
    16:00 +20°C° 0.2 mm 3 mps 749 mmHg 57%
    17:00 +20°C° 0.2 mm 3 mps 749 mmHg 58%
    18:00 +18°C° 0 mm 3 mps 749 mmHg 63%
    19:00 +16°C° 0 mm 3 mps 750 mmHg 68%
    20:00 +14°C° 0 mm 2 mps 750 mmHg 73%
    21:00 +13°C° 0 mm 2 mps 750 mmHg 71%
    22:00 +10°C° 0 mm 2 mps 751 mmHg 69%
    23:00 +9°C° 0 mm 2 mps 751 mmHg 67%

    Tomorrow, 25 May, Friday

    Time Temperature Precipitation Wind Pressure Humidity
    00:00 +8°C° 0 mm 2 mps 751 mmHg 67%
    01:00 +7°C° 0 mm 2 mps 752 mmHg 67%
    02:00 +7°C° 0 mm 2 mps 752 mmHg 66%
    03:00 +7°C° 0 mm 2 mps 753 mmHg 65%
    04:00 +8°C° 0 mm 2 mps 753 mmHg 63%
    05:00 +8°C° 0 mm 2 mps 753 mmHg 62%
    06:00 +10°C° 0 mm 2 mps 754 mmHg 55%
    07:00 +13°C° 0 mm 2 mps 754 mmHg 48%
    08:00 +15°C° 0 mm 2 mps 754 mmHg 41%
    09:00 +16°C° 0 mm 2 mps 754 mmHg 39%
    10:00 +17°C° 0 mm 2 mps 754 mmHg 36%
    11:00 +18°C° 0 mm 2 mps 754 mmHg 34%
    12:00 +19°C° 0 mm 2 mps 754 mmHg 34%
    13:00 +19°C° 0 mm 2 mps 754 mmHg 33%
    14:00 +20°C° 0 mm 2 mps 754 mmHg 33%
    15:00 +20°C° 0 mm 2 mps 754 mmHg 34%
    16:00 +21°C° 0 mm 1 mps 754 mmHg 36%
    17:00 +21°C° 0 mm 1 mps 754 mmHg 38%
    18:00 +19°C° 0 mm 1 mps 754 mmHg 45%
    19:00 +16°C° 0 mm 1 mps 754 mmHg 53%
    20:00 +13°C° 0 mm 1 mps 754 mmHg 60%
    21:00 +13°C° 0 mm 1 mps 754 mmHg 63%
    22:00 +12°C° 0 mm 1 mps 755 mmHg 65%
    23:00 +11°C° 0 mm 1 mps 755 mmHg 68%

    Day after tomorrow, 26 May, Saturday

    Time Temperature Precipitation Wind Pressure Humidity
    00:00 +10°C° 0 mm 1 mps 755 mmHg 70%
    01:00 +10°C° 0 mm 1 mps 756 mmHg 71%
    02:00 +9°C° 0 mm 1 mps 756 mmHg 73%
    03:00 +10°C° 0 mm 1 mps 756 mmHg 72%
    04:00 +10°C° 0 mm 2 mps 756 mmHg 71%
    05:00 +10°C° 0 mm 2 mps 757 mmHg 70%
    06:00 +13°C° 0 mm 2 mps 757 mmHg 63%
    07:00 +16°C° 0 mm 2 mps 757 mmHg 57%
    08:00 +18°C° 0 mm 2 mps 757 mmHg 51%
    09:00 +19°C° 0 mm 2 mps 757 mmHg 46%
    10:00 +21°C° 0 mm 2 mps 757 mmHg 42%
    11:00 +22°C° 0 mm 3 mps 756 mmHg 38%
    12:00 +22°C° 0 mm 3 mps 756 mmHg 37%
    13:00 +24°C° 0 mm 3 mps 756 mmHg 37%
    14:00 +24°C° 0 mm 3 mps 755 mmHg 36%
    15:00 +24°C° 0 mm 3 mps 755 mmHg 39%
    16:00 +24°C° 0 mm 3 mps 755 mmHg 41%
    17:00 +24°C° 0 mm 2 mps 754 mmHg 43%
    18:00 +20°C° 0 mm 2 mps 754 mmHg 51%
    19:00 +18°C° 0 mm 2 mps 754 mmHg 60%
    20:00 +16°C° 0 mm 2 mps 754 mmHg 68%
    21:00 +15°C° 0 mm 2 mps 754 mmHg 70%
    22:00 +14°C° 0 mm 2 mps 754 mmHg 71%
    23:00 +13°C° 0 mm 2 mps 754 mmHg 73%

    27 May, Sunday

    Time Temperature Precipitation Wind Pressure Humidity
    00:00 +13°C° 0 mm 2 mps 754 mmHg 73%
    01:00 +13°C° 0 mm 2 mps 754 mmHg 73%
    02:00 +12°C° 0 mm 3 mps 754 mmHg 73%
    03:00 +12°C° 0 mm 3 mps 754 mmHg 73%
    04:00 +12°C° 0 mm 3 mps 753 mmHg 72%
    05:00 +13°C° 0 mm 3 mps 753 mmHg 72%
    06:00 +16°C° 0 mm 3 mps 753 mmHg 66%
    07:00 +17°C° 0 mm 3 mps 753 mmHg 61%
    08:00 +19°C° 0 mm 4 mps 753 mmHg 56%
    09:00 +21°C° 0 mm 4 mps 752 mmHg 52%
    10:00 +22°C° 0 mm 4 mps 752 mmHg 48%
    11:00 +23°C° 0 mm 4 mps 752 mmHg 44%
    12:00 +23°C° 0 mm 4 mps 751 mmHg 44%
    13:00 +23°C° 0 mm 4 mps 751 mmHg 44%
    14:00 +25°C° 0 mm 4 mps 751 mmHg 45%
    15:00 +23°C° 0 mm 4 mps 750 mmHg 47%
    16:00 +22°C° 0 mm 3 mps 750 mmHg 50%
    17:00 +21°C° 0 mm 3 mps 750 mmHg 52%
    18:00 +19°C° 0 mm 3 mps 750 mmHg 53%
    19:00 +17°C° 0 mm 3 mps 751 mmHg 53%
    20:00 +14°C° 0 mm 3 mps 751 mmHg 54%
    21:00 +13°C° 0 mm 3 mps 751 mmHg 54%
    22:00 +12°C° 0 mm 2 mps 752 mmHg 54%
    23:00 +10°C° 0 mm 2 mps 753 mmHg 55%

    28 May, Monday

    Time Temperature Precipitation Wind Pressure Humidity
    00:00 +9°C° 0 mm 2 mps 753 mmHg 54%
    01:00 +8°C° 0 mm 2 mps 754 mmHg 53%
    02:00 +7°C° 0 mm 2 mps 754 mmHg 53%
    03:00 +8°C° 0 mm 2 mps 755 mmHg 53%
    04:00 +8°C° 0 mm 2 mps 755 mmHg 53%
    05:00 +8°C° 0 mm 2 mps 756 mmHg 54%
    06:00 +10°C° 0 mm 2 mps 756 mmHg 49%
    07:00 +12°C° 0 mm 2 mps 756 mmHg 44%
    08:00 +14°C° 0 mm 2 mps 757 mmHg 39%
    09:00 +15°C° 0 mm 2 mps 757 mmHg 36%
    10:00 +16°C° 0 mm 3 mps 757 mmHg 34%
    11:00 +17°C° 0 mm 3 mps 757 mmHg 31%
    12:00 +18°C° 0 mm 2 mps 757 mmHg 30%
    13:00 +19°C° 0 mm 2 mps 757 mmHg 29%
    14:00 +19°C° 0 mm 2 mps 757 mmHg 29%
    15:00 +19°C° 0 mm 2 mps 756 mmHg 30%
    16:00 +19°C° 0 mm 2 mps 756 mmHg 32%
    17:00 +20°C° 0 mm 1 mps 756 mmHg 34%
    18:00 +18°C° 0 mm 1 mps 756 mmHg 41%
    19:00 +15°C° 0 mm 1 mps 756 mmHg 48%
    20:00 +13°C° 0 mm 1 mps 756 mmHg 56%
    21:00 +12°C° 0 mm 1 mps 756 mmHg 57%
    22:00 +12°C° 0 mm 1 mps 756 mmHg 57%
    23:00 +11°C° 0 mm 1 mps 756 mmHg 58%

    29 May, Tuesday

    Time Temperature Precipitation Wind Pressure Humidity
    00:00 +11°C° 0 mm 1 mps 756 mmHg 60%
    01:00 +9°C° 0 mm 2 mps 756 mmHg 61%
    02:00 +9°C° 0 mm 2 mps 756 mmHg 63%
    03:00 +9°C° 0 mm 2 mps 756 mmHg 62%
    04:00 +10°C° 0 mm 2 mps 756 mmHg 62%
    05:00 +12°C° 0 mm 2 mps 756 mmHg 61%
    06:00 +13°C° 0 mm 3 mps 756 mmHg 56%
    07:00 +16°C° 0 mm 3 mps 755 mmHg 50%
    08:00 +18°C° 0 mm 3 mps 755 mmHg 44%
    09:00 +20°C° 0 mm 4 mps 755 mmHg 41%
    10:00 +21°C° 0 mm 4 mps 754 mmHg 38%
    11:00 +22°C° 0 mm 4 mps 753 mmHg 35%
    12:00 +23°C° 0 mm 4 mps 753 mmHg 34%
    13:00 +23°C° 0 mm 5 mps 752 mmHg 34%
    14:00 +25°C° 0 mm 5 mps 751 mmHg 34%
    15:00 +23°C° 0 mm 5 mps 750 mmHg 36%
    16:00 +23°C° 0 mm 5 mps 750 mmHg 38%
    17:00 +23°C° 0 mm 4 mps 749 mmHg 41%
    18:00 +21°C° 0 mm 4 mps 749 mmHg 47%
    19:00 +19°C° 0 mm 4 mps 748 mmHg 54%
    20:00 +17°C° 0 mm 3 mps 748 mmHg 60%
    21:00 +17°C° 0 mm 3 mps 748 mmHg 61%
    22:00 +16°C° 0 mm 3 mps 747 mmHg 63%
    23:00 +16°C° 0 mm 3 mps 747 mmHg 64%
    Show more